星链-31452 (STARLINK-31452 )

导读

STARLINK-31452是美国SpaceX公司星链星座的第二批次卫星,于2024年4月17日发射入轨,属于星链全球低轨宽带互联网通信星座组网的一部分。该卫星采用平板设计,搭载Ku/Ka波段通信载荷与氪工质霍尔推进器,运行于近地轨道,可提供全球覆盖的高速互联服务,服役寿命末期会主动离轨坠入大气层销毁。

基本信息
目录编号:
59527
目录名称:
STARLINK-31452
国际标识:
2024-073S
轨道中心:
EARTH
卫星名称:
星链-31452
卫星全名:
星链-31452 (STARLINK-31452 )
卫星状态:
在轨 (已飞行788 天)
发射日期:
2024-04-17 UTC
国别 :
美国 (US)
星等 :
--
轨道信息
数据来源 国际轨道数据 AOE轨道数据
星历时间 2026-06-13T22:52:59+0800
20小时前
查看轨道信息
2026-06-14T01:00:00+0800
18小时前
查看轨道信息
半长轴 6861.189km 6861.19km
偏心率 0.0001319 0.0001335
轨道倾角 43.002° 42.999°
近地点辐角 273.522° 295.140°
升交点赤经 136.536° 136.041°
平近点角 86.549° 190.595°
近地点 482.147km 482.137km
远地点 483.957km 483.969km
周期 94.267分钟 94.267分钟
每日圈数 15.275791 15.275788
详细信息
固有亮度:
5
最大亮度:
1.5
卫星平台:
Starlink v2.0 mini
覆盖范围:
全球
运营商:
太空探索技术公司
运营商所在国:
美国
制造商(研发单位):
太空探索技术公司
制造商所在国:
美国
使用方式:
暂无
卫星简介
星链(Starlink)计划是由太空探索技术公司(SpaceX)提出的一个巨型低轨卫星互联网星座项目,计划在2019年至2024年间在太空搭建由约1.2万颗卫星组成的“星链”网络,其中1584颗将部署在地球上空550千米处的近地轨道,并从2020年开始工作。该卫星仍在工作。
2D轨道图
3D轨道图
轨道高度分析图
轨道倾角分析图
轨道综合分析图
查看轨道综合分析图